Date String (YYYY-MM-DD hh:mm:ss) UTC,Instrument flags,absolute air pressure of the measurement (hPa),sample flow rate (lpm),inlet stack bypass flow (lpm),air temperature of the measurement (°C),ambient temperature measured by the external sensor (°C),aerosol sample conditioner tube jacket temperature (°C),OPC LED temperature (°C),internal box temperature (°C),relative humidity of the measurement (%),span deviation,mass concentration of particles derived from Lorenz-Mie calculation of OPC scattering (μg/m³),mass concentration of particles derived from Lorenz-Mie calculation of OPC scattering (μg/m³),mass concentration of particles derived from Lorenz-Mie calculation of OPC scattering (μg/m³)
DateTimeUTC,F1_M11,P_M11,Q1_M11,Q2_M11,T1_M11,T2_M11,T3_M11,T4_M11,T5_M11,U1_M11,ZSPAN_M11,X0_M11,X2_M11,X1_M11
2023-06-30 12:00:00,SystemResetWarning,0833.6,4.99,000.00,029.9,028.6,000.0,038.5,031.4,27.2,0000.0,0008.56,0003.30,0002.29
2023-06-30 12:01:00,SystemResetWarning,0833.6,4.99,000.00,029.9,028.6,000.0,038.5,031.4,27.4,0000.0,0008.08,0003.29,0002.28
2023-06-30 12:02:00,SystemResetWarning,0833.6,4.99,000.00,029.9,028.6,000.0,038.5,031.4,27.4,0000.0,0008.02,0003.31,0002.29
2023-06-30 12:03:00,SystemResetWarning,0833.6,4.99,000.00,030.0,028.6,000.0,038.5,031.4,27.5,0000.0,0007.68,0003.38,0002.30
2023-06-30 12:04:00,SystemResetWarning,0833.6,5.00,000.00,029.9,028.6,000.0,038.5,031.4,27.7,0000.0,0007.61,0003.42,0002.31
2023-06-30 12:05:00,SystemResetWarning,0833.5,5.00,000.00,029.9,028.5,000.0,038.5,031.4,27.8,0000.0,0007.78,0003.46,0002.31
2023-06-30 12:06:00,SystemResetWarning,0833.5,5.00,000.00,030.0,028.5,000.0,038.5,031.4,28.1,0000.0,0007.92,0003.49,0002.31
2023-06-30 12:07:00,SystemResetWarning,0833.4,5.01,000.00,030.0,028.6,000.0,038.5,031.4,28.1,0000.0,0007.90,0003.47,0002.30
2023-06-30 12:08:00,SystemResetWarning,0833.4,5.01,000.00,030.0,028.5,000.0,038.5,031.4,27.5,0000.0,0007.88,0003.46,0002.30
2023-06-30 12:09:00,SystemResetWarning,0833.4,5.00,000.00,030.0,028.5,000.0,038.5,031.4,27.2,0000.0,0007.93,0003.50,0002.30
2023-06-30 12:10:00,SystemResetWarning,0833.4,5.00,000.00,030.0,028.6,000.0,038.5,031.4,27.3,0000.0,0007.75,0003.48,0002.32
2023-06-30 12:11:00,SystemResetWarning,0833.4,4.99,000.00,030.0,028.6,000.0,038.5,031.4,27.1,0000.0,0007.56,0003.46,0002.34
2023-06-30 12:12:00,SystemResetWarning,0833.4,4.99,000.00,030.0,028.6,000.0,038.5,031.4,26.9,0000.0,0007.51,0003.46,0002.34
2023-06-30 12:13:00,SystemResetWarning,0833.4,4.99,000.00,030.0,028.6,000.0,038.6,031.4,26.6,0000.0,0007.47,0003.42,0002.33
2023-06-30 12:14:00,SystemResetWarning,0833.4,5.00,000.00,030.0,028.6,000.0,038.6,031.5,26.4,0000.0,0007.50,0003.35,0002.31
2023-06-30 12:15:00,SystemResetWarning,0833.4,5.00,000.00,030.0,028.6,000.0,038.5,031.4,26.4,0000.0,0007.40,0003.30,0002.30
2023-06-30 12:16:00,SystemResetWarning,0833.4,5.00,000.00,030.0,028.6,000.0,038.6,031.4,26.5,0000.0,0007.33,0003.25,0002.29
2023-06-30 12:17:00,SystemResetWarning,0833.4,5.00,000.00,030.0,028.6,000.0,038.6,031.5,26.6,0000.0,0006.95,0003.19,0002.27
2023-06-30 12:18:00,SystemResetWarning,0833.4,5.00,000.00,030.0,028.6,000.0,038.6,031.5,26.7,0000.0,0006.84,0003.18,0002.26
2023-06-30 12:19:00,SystemResetWarning,0833.4,5.01,000.00,030.0,028.6,000.0,038.6,031.5,26.3,0000.0,0007.38,0003.14,0002.24
2023-06-30 12:20:00,SystemResetWarning,0833.4,5.00,000.00,030.0,028.6,000.0,038.6,031.5,26.1,0000.0,0007.51,0003.10,0002.23
2023-06-30 12:21:00,SystemResetWarning,0833.4,5.00,000.00,030.0,028.6,000.0,038.6,031.5,25.8,0000.0,0007.45,0003.04,0002.21
2023-06-30 12:22:00,SystemResetWarning,0833.4,5.00,000.00,030.0,028.6,000.0,038.6,031.5,25.5,0000.0,0007.31,0002.95,0002.19
2023-06-30 12:23:00,SystemResetWarning,0833.4,5.00,000.00,030.0,028.6,000.0,038.6,031.5,25.6,0000.0,0007.05,0002.86,0002.16
2023-06-30 12:24:00,SystemResetWarning,0833.4,5.00,000.00,030.0,028.6,000.0,038.6,031.5,26.1,0000.0,0007.53,0002.86,0002.15
2023-06-30 12:25:00,SystemResetWarning,0833.4,5.00,000.00,030.0,028.6,000.0,038.6,031.5,26.5,0000.0,0008.32,0003.05,0002.16
2023-06-30 12:26:00,SystemResetWarning,0833.3,5.00,000.00,030.0,028.6,000.0,038.6,031.5,26.6,0000.0,0009.15,0003.12,0002.15
2023-06-30 12:27:00,SystemResetWarning,0833.3,5.00,000.00,030.0,028.6,000.0,038.6,031.5,26.6,0000.0,0009.42,0003.18,0002.14
2023-06-30 12:28:00,SystemResetWarning,0833.3,5.00,000.00,030.0,028.6,000.0,038.6,031.5,26.6,0000.0,0009.67,0003.15,0002.13
2023-06-30 12:29:00,SystemResetWarning,0833.2,5.00,000.00,030.0,028.6,000.0,038.6,031.5,26.4,0000.0,0009.99,0003.12,0002.11
2023-06-30 12:30:00,SystemResetWarning,0833.3,5.00,000.00,030.0,028.6,000.0,038.6,031.5,26.4,0000.0,0010.29,0003.11,0002.11
2023-06-30 12:31:00,SystemResetWarning,0833.2,5.01,000.00,030.0,028.6,000.0,038.6,031.5,26.1,0000.0,0010.35,0003.10,0002.09
2023-06-30 12:32:00,SystemResetWarning,0833.3,5.00,000.00,030.0,028.6,000.0,038.6,031.5,25.9,0000.0,0010.29,0003.07,0002.08
2023-06-30 12:33:00,SystemResetWarning,0833.2,5.00,000.00,030.0,028.6,000.0,038.6,031.5,26.0,0000.0,0010.32,0003.09,0002.07
2023-06-30 12:34:00,SystemResetWarning,0833.3,5.00,000.00,030.0,028.6,000.0,038.6,031.5,26.1,0000.0,0010.29,0003.06,0002.06
2023-06-30 12:35:00,SystemResetWarning,0833.4,5.00,000.00,030.1,028.6,000.0,038.6,031.5,26.3,0000.0,0009.87,0002.97,0002.04
2023-06-30 12:36:00,SystemResetWarning,0833.4,5.00,000.00,030.1,028.6,000.0,038.6,031.5,26.4,0000.0,0008.91,0002.84,0002.02
2023-06-30 12:37:00,SystemResetWarning,0833.4,5.00,000.00,030.0,028.6,000.0,038.6,031.5,26.4,0000.0,0007.74,0002.71,0002.01
2023-06-30 12:38:00,SystemResetWarning,0833.4,5.00,000.00,030.0,028.6,000.0,038.6,031.5,26.4,0000.0,0006.87,0002.53,0001.99
2023-06-30 12:39:00,SystemResetWarning,0833.4,5.00,000.00,030.0,028.6,000.0,038.6,031.5,26.3,0000.0,0006.51,0002.52,0001.97
2023-06-30 12:40:00,SystemResetWarning,0833.4,5.00,000.00,030.0,028.6,000.0,038.6,031.5,26.5,0000.0,0005.59,0002.51,0001.97
2023-06-30 12:41:00,SystemResetWarning,0833.4,4.99,000.00,030.0,028.6,000.0,038.6,031.5,26.5,0000.0,0004.46,0002.50,0001.96
2023-06-30 12:42:00,SystemResetWarning,0833.4,5.00,000.00,030.0,028.6,000.0,038.6,031.5,26.2,0000.0,0003.46,0002.47,0001.95
2023-06-30 12:43:00,SystemResetWarning,0833.4,5.00,000.00,030.1,028.6,000.0,038.6,031.5,26.2,0000.0,0003.48,0002.46,0001.93
2023-06-30 12:44:00,SystemResetWarning,0833.4,5.01,000.00,030.1,028.7,000.0,038.6,031.5,26.0,0000.0,0003.62,0002.47,0001.90
2023-06-30 12:45:00,SystemResetWarning,0833.4,5.00,000.00,030.1,028.7,000.0,038.6,031.5,26.0,0000.0,0003.68,0002.47,0001.87
2023-06-30 12:46:00,SystemResetWarning,0833.4,5.00,000.00,030.1,028.7,000.0,038.7,031.5,26.3,0000.0,0003.77,0002.50,0001.84
2023-06-30 12:47:00,SystemResetWarning,0833.4,4.99,000.00,030.1,028.7,000.0,038.7,031.6,26.0,0000.0,0003.64,0002.43,0001.81
2023-06-30 12:48:00,SystemResetWarning,0833.4,5.00,000.00,030.1,028.7,000.0,038.7,031.5,25.9,0000.0,0003.48,0002.35,0001.78
2023-06-30 12:49:00,SystemResetWarning,0833.4,5.00,000.00,030.1,028.7,000.0,038.7,031.5,25.9,0000.0,0003.38,0002.31,0001.75
2023-06-30 12:50:00,SystemResetWarning,0833.4,5.00,000.00,030.1,028.7,000.0,038.7,031.6,26.0,0000.0,0003.16,0002.22,0001.72
2023-06-30 12:51:00,SystemResetWarning,0833.4,5.00,000.00,030.1,028.7,000.0,038.7,031.6,26.3,0000.0,0003.17,0002.20,0001.70
2023-06-30 12:52:00,SystemResetWarning,0833.4,5.00,000.00,030.1,028.7,000.0,038.7,031.6,26.2,0000.0,0004.20,0002.20,0001.66
2023-06-30 12:53:00,SystemResetWarning,0833.4,5.00,000.00,030.1,028.7,000.0,038.7,031.6,25.9,0000.0,0004.18,0002.16,0001.64
2023-06-30 12:54:00,SystemResetWarning,0833.4,5.00,000.00,030.1,028.7,000.0,038.7,031.6,25.7,0000.0,0004.17,0002.14,0001.63
2023-06-30 12:55:00,SystemResetWarning,0833.4,5.00,000.00,030.1,028.7,000.0,038.7,031.6,25.7,0000.0,0004.06,0002.10,0001.62
2023-06-30 12:56:00,SystemResetWarning,0833.4,5.00,000.00,030.1,028.8,000.0,038.7,031.6,25.5,0000.0,0003.82,0002.03,0001.62
2023-06-30 12:57:00,SystemResetWarning,0833.4,4.99,000.00,030.1,028.8,000.0,038.7,031.6,25.5,0000.0,0003.92,0002.02,0001.62
2023-06-30 12:58:00,SystemResetWarning,0833.4,5.01,000.00,030.1,028.8,000.0,038.7,031.6,25.5,0000.0,0004.04,0002.04,0001.62
2023-06-30 12:59:00,SystemResetWarning,0833.4,5.00,000.00,030.2,028.8,000.0,038.7,031.7,25.6,0000.0,0004.17,0002.06,0001.61
